This is the latest recevied weather packets stored in our database for station/object KG4LKY-5. If no packets are shown the sender has not sent any weather packets the latest 10 day(s).
| Time | Temp. | Humidity | Pressure | Rain* | Wind** | Luminosity | Snow |
|---|---|---|---|---|---|---|---|
| 1777840459 | 16.67° C | 21% | 1017.7 hPa | 0 mm | - | - | - |
| 1777839859 | 18.33° C | 23% | 1018.1 hPa | 0 mm | - | - | - |
| 1777839558 | 18.33° C | 22% | 1018 hPa | 0 mm | - | - | - |
| 1777838958 | 17.22° C | 27% | 1018.1 hPa | 0 mm | - | - | - |
| 1777838657 | 17.22° C | 25% | 1018.2 hPa | 0 mm | - | - | - |
| 1777838056 | 16.67° C | 24% | 1018.6 hPa | 0 mm | - | - | - |
| 1777837756 | 16.67° C | 24% | 1018.6 hPa | 0 mm | - | - | - |
| 1777837456 | 16.67° C | 21% | 1018.7 hPa | 0 mm | - | - | - |
| 1777837156 | 16.11° C | 21% | 1018.9 hPa | 0 mm | - | - | - |
| 1777836855 | 15.56° C | 22% | 1018.9 hPa | 0 mm | - | - | - |
| 1777835955 | 17.22° C | 24% | 1019.1 hPa | 0 mm | - | - | - |
| 1777835353 | 16.11° C | 24% | 1019.3 hPa | 0 mm | - | - | - |
| 1777835052 | 17.22° C | 27% | 1019.3 hPa | 0 mm | - | - | - |
| 1777834752 | 17.22° C | 29% | 1019.5 hPa | 0 mm | - | - | - |
| 1777834452 | 16.67° C | 24% | 1019.6 hPa | 0 mm | - | - | - |
| 1777834151 | 16.11° C | 29% | 1019.7 hPa | 0 mm | - | - | - |
| 1777833851 | 15° C | 29% | 1019.8 hPa | 0 mm | - | - | - |
| 1777833551 | 15.56° C | 29% | 1019.8 hPa | 0 mm | - | - | - |
| 1777833251 | 15.56° C | 29% | 1019.8 hPa | 0 mm | - | - | - |
| 1777832950 | 13.89° C | 29% | 1020 hPa | 0 mm | - | - | - |
| 1777832650 | 16.11° C | 29% | 1020.1 hPa | 0 mm | - | - | - |
| 1777832350 | 15° C | 22% | 1020.1 hPa | 0 mm | - | - | - |
| 1777832050 | 15° C | 22% | 1020.2 hPa | 0 mm | - | - | - |
| 1777831749 | 15° C | 22% | 1020.1 hPa | 0 mm | - | - | - |
| 1777831449 | 15° C | 22% | 1020.2 hPa | 0 mm | - | - | - |
* Rain since midnight (hover to see other rain measurements)
** Current wind speed in m/s (hover to see current wind gust speed)